Year,Month,Day,Hour,Minute,Value (Times are PST for temperature in C)
2021,04,01,09,41,7.90
2021,04,01,09,42,8.00
2021,04,01,09,43,8.00
2021,04,01,09,44,8.00
2021,04,01,09,45,8.00
2021,04,01,09,46,8.00
2021,04,01,09,47,8.10
2021,04,01,09,48,8.10
2021,04,01,09,49,8.20
2021,04,01,09,50,8.20
2021,04,01,09,51,8.30
2021,04,01,09,52,8.30
2021,04,01,09,53,8.30
2021,04,01,09,54,8.30
2021,04,01,09,55,8.30
2021,04,01,09,56,8.30
2021,04,01,09,57,8.30
2021,04,01,09,58,8.40
2021,04,01,09,59,8.40
2021,04,01,10,00,8.40
2021,04,01,10,01,8.50
2021,04,01,10,02,8.50
2021,04,01,10,03,8.50
2021,04,01,10,04,8.60
2021,04,01,10,05,8.60
2021,04,01,10,06,8.60
2021,04,01,10,07,8.70
2021,04,01,10,08,8.70
2021,04,01,10,09,8.70
2021,04,01,10,10,8.70
2021,04,01,10,11,8.70
2021,04,01,10,12,8.70
2021,04,01,10,13,8.70
2021,04,01,10,14,8.80
2021,04,01,10,15,8.80
2021,04,01,10,16,8.90
2021,04,01,10,17,9.00
2021,04,01,10,18,9.00
2021,04,01,10,19,9.10
2021,04,01,10,20,9.20
2021,04,01,10,21,9.20
2021,04,01,10,22,9.30
2021,04,01,10,23,9.40
2021,04,01,10,24,9.40
2021,04,01,10,25,9.50
2021,04,01,10,26,9.50
2021,04,01,10,27,9.60
2021,04,01,10,28,9.70
2021,04,01,10,29,9.80
2021,04,01,10,30,9.80
2021,04,01,10,31,9.90
2021,04,01,10,32,10.00
2021,04,01,10,33,10.10
2021,04,01,10,34,10.10
2021,04,01,10,35,10.20
2021,04,01,10,36,10.20
2021,04,01,10,37,10.30
2021,04,01,10,38,10.30
2021,04,01,10,39,10.30
2021,04,01,10,40,10.40
2021,04,01,10,41,10.40
2021,04,01,10,42,10.40
2021,04,01,10,43,10.40
2021,04,01,10,44,10.40
2021,04,01,10,45,10.50
2021,04,01,10,46,10.60
2021,04,01,10,47,10.60
2021,04,01,10,48,10.70
2021,04,01,10,49,10.70
2021,04,01,10,50,10.80
2021,04,01,10,51,10.80
2021,04,01,10,52,10.80
2021,04,01,10,53,10.90
2021,04,01,10,54,10.90
2021,04,01,10,55,10.90
2021,04,01,10,56,11.00
2021,04,01,10,57,11.10
2021,04,01,10,58,11.10
2021,04,01,10,59,11.20
2021,04,01,11,00,11.20
2021,04,01,11,01,11.20
2021,04,01,11,02,11.30
2021,04,01,11,03,11.30
2021,04,01,11,04,11.30
2021,04,01,11,05,11.30
2021,04,01,11,06,11.40
2021,04,01,11,07,11.40
2021,04,01,11,08,11.40
2021,04,01,11,09,11.40
2021,04,01,11,10,11.40
2021,04,01,11,11,11.40
2021,04,01,11,12,11.40
2021,04,01,11,13,11.40
2021,04,01,11,14,11.40
2021,04,01,11,15,11.40
2021,04,01,11,16,11.40
2021,04,01,11,17,11.40
2021,04,01,11,18,11.60
2021,04,01,11,19,11.60
2021,04,01,11,20,11.60
2021,04,01,11,21,11.60
2021,04,01,11,22,11.60
2021,04,01,11,23,11.60
2021,04,01,11,24,11.70
2021,04,01,11,25,11.70
2021,04,01,11,26,11.80
2021,04,01,11,27,11.80
2021,04,01,11,28,11.80
2021,04,01,11,29,11.80
2021,04,01,11,30,11.80
2021,04,01,11,31,11.80
2021,04,01,11,32,11.70
2021,04,01,11,33,11.60
2021,04,01,11,34,11.60
2021,04,01,11,35,11.60
2021,04,01,11,36,11.60
2021,04,01,11,37,11.60
2021,04,01,11,38,11.60
2021,04,01,11,39,11.60
2021,04,01,11,40,11.60
2021,04,01,11,41,11.60
2021,04,01,11,42,11.60
2021,04,01,11,43,11.60
2021,04,01,11,44,11.70
2021,04,01,11,45,11.80
2021,04,01,11,46,11.80
2021,04,01,11,47,11.80
2021,04,01,11,48,11.80
2021,04,01,11,49,11.80
2021,04,01,11,50,11.80
2021,04,01,11,51,11.80
2021,04,01,11,52,11.80
2021,04,01,11,53,11.80
2021,04,01,11,54,11.80
2021,04,01,11,55,11.80
2021,04,01,11,56,11.80
2021,04,01,11,57,11.80
2021,04,01,11,58,11.80
2021,04,01,11,59,11.80
2021,04,01,12,00,11.80
2021,04,01,12,01,11.80
2021,04,01,12,02,11.80
2021,04,01,12,03,11.80
2021,04,01,12,04,11.80
2021,04,01,12,05,11.70
2021,04,01,12,06,11.70
2021,04,01,12,07,11.70
2021,04,01,12,08,11.70
2021,04,01,12,09,11.70
2021,04,01,12,10,11.70
2021,04,01,12,11,11.80
2021,04,01,12,12,11.80
2021,04,01,12,13,11.80
2021,04,01,12,14,11.80
2021,04,01,12,15,11.80
2021,04,01,12,16,11.80
2021,04,01,12,17,11.80
2021,04,01,12,18,11.80
2021,04,01,12,19,11.70
2021,04,01,12,20,11.70
2021,04,01,12,21,11.60
2021,04,01,12,22,11.60
2021,04,01,12,23,11.60
2021,04,01,12,24,11.60
2021,04,01,12,25,11.60
2021,04,01,12,26,11.60
2021,04,01,12,27,11.60
2021,04,01,12,28,11.60
2021,04,01,12,29,11.60
2021,04,01,12,30,11.60
2021,04,01,12,31,11.70
2021,04,01,12,32,11.80
2021,04,01,12,33,11.80
2021,04,01,12,34,11.80
2021,04,01,12,35,11.80
2021,04,01,12,36,11.80
2021,04,01,12,37,11.90
2021,04,01,12,38,11.90
2021,04,01,12,39,11.90
2021,04,01,12,40,11.90
2021,04,01,12,41,12.00
2021,04,01,12,42,12.10
2021,04,01,12,43,12.10
2021,04,01,12,44,12.20
2021,04,01,12,45,12.30
2021,04,01,12,46,12.30
2021,04,01,12,47,12.40
2021,04,01,12,48,12.50
2021,04,01,12,49,12.60
2021,04,01,12,50,12.60
2021,04,01,12,51,12.70
2021,04,01,12,52,12.70
2021,04,01,12,53,12.70
2021,04,01,12,54,12.70
2021,04,01,12,55,12.70
2021,04,01,12,56,12.70
2021,04,01,12,57,12.80
2021,04,01,12,58,12.80
2021,04,01,12,59,12.80
2021,04,01,13,00,12.80
2021,04,01,13,01,12.80
2021,04,01,13,02,12.80
2021,04,01,13,03,12.80
2021,04,01,13,04,12.80
2021,04,01,13,05,12.80
2021,04,01,13,06,12.80
2021,04,01,13,07,12.80
2021,04,01,13,08,12.80
2021,04,01,13,09,12.80
2021,04,01,13,10,12.80
2021,04,01,13,11,12.80
2021,04,01,13,12,12.80
2021,04,01,13,13,12.70
2021,04,01,13,14,12.70
2021,04,01,13,15,12.70
2021,04,01,13,16,12.70
2021,04,01,13,17,12.70
2021,04,01,13,18,12.80
2021,04,01,13,19,12.80
2021,04,01,13,20,12.90
2021,04,01,13,21,12.90
2021,04,01,13,22,12.90
2021,04,01,13,23,12.90
2021,04,01,13,24,12.90
2021,04,01,13,25,12.90
2021,04,01,13,26,12.80
2021,04,01,13,27,12.80
2021,04,01,13,28,12.80
2021,04,01,13,29,12.80
2021,04,01,13,30,12.80
2021,04,01,13,31,12.80
2021,04,01,13,32,12.70
2021,04,01,13,33,12.70
2021,04,01,13,34,12.60
2021,04,01,13,35,12.60
2021,04,01,13,36,12.60
2021,04,01,13,37,12.50
2021,04,01,13,38,12.50
2021,04,01,13,39,12.50
2021,04,01,13,40,12.40
2021,04,01,13,41,12.40
2021,04,01,13,42,12.40
2021,04,01,13,43,12.40
2021,04,01,13,44,12.40
2021,04,01,13,45,12.40
2021,04,01,13,46,12.50
2021,04,01,13,47,12.50
2021,04,01,13,48,12.50
2021,04,01,13,49,12.50
2021,04,01,13,50,12.40
2021,04,01,13,51,12.40
2021,04,01,13,52,12.40
2021,04,01,13,53,12.40
2021,04,01,13,54,12.40
2021,04,01,13,55,12.40
2021,04,01,13,56,12.40
2021,04,01,13,57,12.40
2021,04,01,13,58,12.40
2021,04,01,13,59,12.40
2021,04,01,14,00,12.40
2021,04,01,14,01,12.40
2021,04,01,14,02,12.30
2021,04,01,14,03,12.30
2021,04,01,14,04,12.30
2021,04,01,14,05,12.30
2021,04,01,14,06,12.30
2021,04,01,14,07,12.30
2021,04,01,14,08,12.30
2021,04,01,14,09,12.30
2021,04,01,14,10,12.30
2021,04,01,14,11,12.30
2021,04,01,14,12,12.30
2021,04,01,14,13,12.30
2021,04,01,14,14,12.30
2021,04,01,14,15,12.30
2021,04,01,14,16,12.40
2021,04,01,14,17,12.40
2021,04,01,14,18,12.40
2021,04,01,14,19,12.40
2021,04,01,14,20,12.30
2021,04,01,14,21,12.30
2021,04,01,14,22,12.30
2021,04,01,14,23,12.30
2021,04,01,14,24,12.30
2021,04,01,14,25,12.40
2021,04,01,14,26,12.30
2021,04,01,14,27,12.30
2021,04,01,14,28,12.30
2021,04,01,14,29,12.30
2021,04,01,14,30,12.40
2021,04,01,14,31,12.40
2021,04,01,14,32,12.50
2021,04,01,14,33,12.60
2021,04,01,14,34,12.60
2021,04,01,14,35,12.70
2021,04,01,14,36,12.70
2021,04,01,14,37,12.70
2021,04,01,14,38,12.80
2021,04,01,14,39,12.80
2021,04,01,14,40,12.80
2021,04,01,14,41,12.80
2021,04,01,14,42,12.80
2021,04,01,14,43,12.80
2021,04,01,14,44,12.80
2021,04,01,14,45,12.80
2021,04,01,14,46,12.90
2021,04,01,14,47,12.90
2021,04,01,14,48,12.90
2021,04,01,14,49,12.90
2021,04,01,14,50,13.00
2021,04,01,14,51,13.00
2021,04,01,14,52,13.00
2021,04,01,14,53,13.00
2021,04,01,14,54,13.00
2021,04,01,14,55,13.00
2021,04,01,14,56,13.00
2021,04,01,14,57,13.00
2021,04,01,14,58,13.00
2021,04,01,14,59,12.90
2021,04,01,15,00,12.90
2021,04,01,15,01,12.90
2021,04,01,15,02,12.80
2021,04,01,15,03,12.80
2021,04,01,15,04,12.80
2021,04,01,15,05,12.80
2021,04,01,15,06,12.80
2021,04,01,15,07,12.80
2021,04,01,15,08,12.80
2021,04,01,15,09,12.80
2021,04,01,15,10,12.80
2021,04,01,15,11,12.80
2021,04,01,15,12,12.80
2021,04,01,15,13,12.80
2021,04,01,15,14,12.80
2021,04,01,15,15,12.80
2021,04,01,15,16,12.80
2021,04,01,15,17,12.80
2021,04,01,15,18,12.80
2021,04,01,15,19,12.80
2021,04,01,15,20,12.80
2021,04,01,15,21,12.80
2021,04,01,15,22,12.70
2021,04,01,15,23,12.70
2021,04,01,15,24,12.70
2021,04,01,15,25,12.70
2021,04,01,15,26,12.70
2021,04,01,15,27,12.70
2021,04,01,15,28,12.70
2021,04,01,15,29,12.80
2021,04,01,15,30,12.80
2021,04,01,15,31,13.00
2021,04,01,15,32,13.10
2021,04,01,15,33,13.10
2021,04,01,15,34,13.20
2021,04,01,15,35,13.20
2021,04,01,15,36,13.20
2021,04,01,15,37,13.30
2021,04,01,15,38,13.30
2021,04,01,15,39,13.30
2021,04,01,15,40,13.30
2021,04,01,15,41,13.30
2021,04,01,15,42,13.30
2021,04,01,15,43,13.30
2021,04,01,15,44,13.30
2021,04,01,15,45,13.30
2021,04,01,15,46,13.40
2021,04,01,15,47,13.40
2021,04,01,15,48,13.50
2021,04,01,15,49,13.50
2021,04,01,15,50,13.50
2021,04,01,15,51,13.50
2021,04,01,15,52,13.50
2021,04,01,15,53,13.40
2021,04,01,15,54,13.30
2021,04,01,15,55,13.30
2021,04,01,15,56,13.30
2021,04,01,15,57,13.30
2021,04,01,15,58,13.30
2021,04,01,15,59,13.30
2021,04,01,16,00,13.30
2021,04,01,16,01,13.30
2021,04,01,16,02,13.30
2021,04,01,16,03,13.30
2021,04,01,16,04,13.20
2021,04,01,16,05,13.20
2021,04,01,16,06,13.10
2021,04,01,16,07,13.10
2021,04,01,16,08,13.00
2021,04,01,16,09,12.90
2021,04,01,16,10,12.80
2021,04,01,16,11,12.80
2021,04,01,16,12,12.80
2021,04,01,16,13,12.80
2021,04,01,16,14,12.80
2021,04,01,16,15,12.80
2021,04,01,16,16,12.80
2021,04,01,16,17,12.80
2021,04,01,16,18,12.80
2021,04,01,16,19,12.80
2021,04,01,16,20,12.80
2021,04,01,16,21,12.90
2021,04,01,16,22,12.90
2021,04,01,16,23,12.90
2021,04,01,16,24,12.90
2021,04,01,16,25,12.90
2021,04,01,16,26,12.80
2021,04,01,16,27,12.80
2021,04,01,16,28,12.70
2021,04,01,16,29,12.70
2021,04,01,16,30,12.70
2021,04,01,16,31,12.70
2021,04,01,16,32,12.70
2021,04,01,16,33,12.70
2021,04,01,16,34,12.70
2021,04,01,16,35,12.70
2021,04,01,16,36,12.70
2021,04,01,16,37,12.70
2021,04,01,16,38,12.70
2021,04,01,16,39,12.80
2021,04,01,16,40,12.80
2021,04,01,16,41,12.90
2021,04,01,16,42,12.90
2021,04,01,16,43,13.00
2021,04,01,16,44,13.10
2021,04,01,16,45,13.10
2021,04,01,16,46,13.20
2021,04,01,16,47,13.20
2021,04,01,16,48,13.30
2021,04,01,16,49,13.30
2021,04,01,16,50,13.30
2021,04,01,16,51,13.30
2021,04,01,16,52,13.40
2021,04,01,16,53,13.40
2021,04,01,16,54,13.50
2021,04,01,16,55,13.50
2021,04,01,16,56,13.50
2021,04,01,16,57,13.50
2021,04,01,16,58,13.60
2021,04,01,16,59,13.60
2021,04,01,17,00,13.60
2021,04,01,17,01,13.60
2021,04,01,17,02,13.60
2021,04,01,17,03,13.60
2021,04,01,17,04,13.60
2021,04,01,17,05,13.60
2021,04,01,17,06,13.60
2021,04,01,17,07,13.60
2021,04,01,17,08,13.60
2021,04,01,17,09,13.60
2021,04,01,17,10,13.60
2021,04,01,17,11,13.60
2021,04,01,17,12,13.60
2021,04,01,17,13,13.50
2021,04,01,17,14,13.50
2021,04,01,17,15,13.50
2021,04,01,17,16,13.40
2021,04,01,17,17,13.40
2021,04,01,17,18,13.40
2021,04,01,17,19,13.40
2021,04,01,17,20,13.40
2021,04,01,17,21,13.40
2021,04,01,17,22,13.30
2021,04,01,17,23,13.30
2021,04,01,17,24,13.30
2021,04,01,17,25,13.30
2021,04,01,17,26,13.30
2021,04,01,17,27,13.30
2021,04,01,17,28,13.30
2021,04,01,17,29,13.30
2021,04,01,17,30,13.30
2021,04,01,17,31,13.30
2021,04,01,17,32,13.30
2021,04,01,17,33,13.30
2021,04,01,17,34,13.30
2021,04,01,17,35,13.30
2021,04,01,17,36,13.30
2021,04,01,17,37,13.30
2021,04,01,17,38,13.30
2021,04,01,17,39,13.30
2021,04,01,17,40,13.30
2021,04,01,17,41,13.30
2021,04,01,17,42,13.30
2021,04,01,17,43,13.30
2021,04,01,17,44,13.30
2021,04,01,17,45,13.30
2021,04,01,17,46,13.30
2021,04,01,17,47,13.30
2021,04,01,17,48,13.30
2021,04,01,17,49,13.30
2021,04,01,17,50,13.30
2021,04,01,17,51,13.30
2021,04,01,17,52,13.30
2021,04,01,17,53,13.30
2021,04,01,17,54,13.30
2021,04,01,17,55,13.30
2021,04,01,17,56,13.20
2021,04,01,17,57,13.20
2021,04,01,17,58,13.20
2021,04,01,17,59,13.20
2021,04,01,18,00,13.20
2021,04,01,18,01,13.20
2021,04,01,18,02,13.10
2021,04,01,18,03,13.10
2021,04,01,18,04,13.10
2021,04,01,18,05,13.10
2021,04,01,18,06,13.10
2021,04,01,18,07,13.10
2021,04,01,18,08,13.10
2021,04,01,18,09,13.00
2021,04,01,18,10,13.00
2021,04,01,18,11,13.00
2021,04,01,18,12,13.00
2021,04,01,18,13,12.90
2021,04,01,18,14,12.90
2021,04,01,18,15,12.90
2021,04,01,18,16,12.90
2021,04,01,18,17,12.90
2021,04,01,18,18,12.90
2021,04,01,18,19,12.90
2021,04,01,18,20,12.90
2021,04,01,18,21,12.90
2021,04,01,18,22,12.90
2021,04,01,18,23,12.90
2021,04,01,18,24,12.90
2021,04,01,18,25,12.90
2021,04,01,18,26,12.90
2021,04,01,18,27,12.90
